(5335) Damocles (1990)

Japanese version
Home page
Total 6,336 html files since Dec. 4, 1995
Updated on November 25, 2005

---------------------------------------------------------------------

* Profile

Designation 1991 DA
Discovery Date February 18, 1992
Magnitude 17 mag
Discoverer R. H. McNaught (University of Adelaide)

* Orbital Elements

Perturbed ephemeris below is based on 2-opp unperturbed elements from MPC 20799.
Last observed on 1992 Aug. 22. 

 Epoch = 2448240.50000 TT   T = 2448228.99076 TT
 Peri. =  191.23344         a =    11.8756186 AU
 Node  =  314.10295 J2000.0 e =     0.8670961
 Incl. =   61.88986         q =     1.5783154 AU

* Magnitudes Graph

        H = 13.5  G = 0.15

---------------------------------------------------------------------

The orbital elements are calculated using the Minor Planet & Comet Ephemeris Service.
The magnitudes graphs are made with Comet for Windows.

---------------------------------------------------------------------

Copyright(C) 1995-2008 Seiichi Yoshida (comet@aerith.net). All rights reserved.